Location: Gleizolles
(44.4833°N, 6.7667°E)
Time: 00:37:17
(UTC+00:00)

Vanguard 1 Rocket - Visible Passes

Search period start: 16 June 2024 00:00
Search period end: 26 June 2024 00:00
Orbit: 649 x 4221 km, 34.3° (Epoch: 15 June)

Date Brightness Start Highest point End Pass type
(mag) Time Alt. Az. Time Alt. Az. Time Alt. Az.
16 Jun 10.4 00:57:16 22° S 01:07:30 36° SE 01:28:33 10° E visible
16 Jun 10.6 23:48:50 20° SSE 23:54:47 24° SE 00:10:26 10° E visible
17 Jun 10.5 02:05:59 16° SW 02:21:24 52° SSE 02:45:51 10° E visible
17 Jun 10.9 22:40:23 11° SE 22:42:56 12° ESE 22:48:07 10° ESE visible
18 Jun 10.3 00:57:32 24° SSW 01:07:29 41° SE 01:29:19 10° E visible
18 Jun 10.3 23:49:04 23° SSE 23:54:38 28° SE 00:11:43 10° E visible
19 Jun 10.5 02:06:13 15° SW 02:21:37 56° SSE 02:46:26 10° E visible
19 Jun 10.6 22:40:34 15° SE 22:42:44 15° ESE 22:51:56 10° E visible
20 Jun 10.1 00:57:44 25° SSW 01:07:34 45° SSE 01:29:57 10° E visible
20 Jun 10.1 23:49:13 27° SSE 23:54:37 32° SE 00:12:40 10° E visible
21 Jun 10.4 02:06:22 13° SW 02:21:56 59° SSE 02:46:57 10° E visible
21 Jun 10.4 22:40:41 19° SE 22:42:38 19° SE 22:54:04 10° E visible
22 Jun 10.1 00:57:50 24° SSW 01:07:48 49° SSE 01:30:29 10° E visible
22 Jun 9.8 23:49:17 29° S 23:54:44 37° SE 00:13:23 10° E visible
23 Jun 10.3 02:06:26 10° WSW 02:22:22 61° SSE 02:47:25 10° E visible
23 Jun 10.1 22:40:43 23° SE 22:42:39 23° SE 22:55:32 10° E visible
24 Jun 10.1 00:57:51 22° SW 01:08:10 53° SSE 01:30:56 10° E visible
24 Jun 10.6 21:32:08 11° ESE 21:32:08 11° ESE 21:34:19 10° ESE visible
24 Jun 9.7 23:49:15 30° S 23:54:59 41° SE 00:13:59 10° E visible
25 Jun 10.3 02:07:24 10° WSW 02:22:52 62° S 02:47:49 10° E visible
25 Jun 9.8 22:40:38 26° SSE 22:42:49 27° SE 22:56:37 10° E visible
